Location: Barrio Las Umbrías
(40.4173°N, 4.8685°W)
Time: 13:35:10
(UTC+00:00)

USA 307 - Pass Details

Date: 17 August 2022
Orbit: 539 x 556 km, 54.0° (Epoch: 31 August)

Event Time Altitude Azimuth Distance (km) Brightness Sun altitude
Rises 19:36:27 0° 247° (WSW) 2,719 7.1 -4.8°
Reaches altitude 10° 19:38:46 10° 254° (WSW) 1,825 6.4 -5.2°
Maximum altitude 19:42:43 42° 326° (NW) 791 4.2 -5.9°
Drops below altitude 10° 19:46:40 10° 38° (NE) 1,823 5.3 -6.6°
Sets 19:48:59 0° 46° (NE) 2,715 6.1 -7.0°
